Other Surface Observations
Issued by NWS

Home | Current Version | Previous Version | Text Only | Print | Product List | Glossary On
Versions: 1 2 3 4 5 6 7 8 9 10 11 12 13 14 15 16 17 18 19 20 21 22 23 24 25 26 27 28 29 30 31 32 33 34 35 36 37 38 39 40 41 42 43 44 45 46 47 48 49 50
000
SXUS52 KTAE 201118
OSOTAE
OSOTAE
North Florida/South Alabama/Southwest Georgia Weather Roundup
National Weather Service Tallahassee Florida
700 AM EDT MON OCT 20 2014

Note: "fair" indicates few or no clouds below 12,000 feet with no
significant weather and/or obstructions to visibility.

!FLZ017-115-028-034-025-201200
...North Florida...

CITY           SKY/WX    TMP DP  RH WIND       PRES   REMARKS
TALLAHASSEE    PTCLDY    53  49  86 CALM      30.06R
APALACHICOLA   PTCLDY    63  59  87 NE8       30.01F
PERRY          PTCLDY    59  55  88 CALM      30.06S
CROSS CITY       N/A     57  55  93 NE3       30.04S
JACKSONVILLE   MOCLDY    58  57  97 CALM      30.06R
$$

!FLZ112-006-005-002-011-201200
...Florida Panhandle...

CITY           SKY/WX    TMP DP  RH WIND       PRES   REMARKS
MARIANNA       LGT RAIN  50  50 100 NE3       30.06S
BONIFAY        NOT AVBL
PANAMA CITY NW FAIR      55  52  89 NE3       30.03S
TYNDALL AFB    CLEAR     59  56  92 NE3       30.03S
TYND DRONE APT FAIR      57  57  97 MISG      30.02S
DE FUNIAK SPR  FAIR      54  50  88 NE3       30.05S
EGLIN AFB      PTCLDY    52  48  86 N2        30.04S
DESTIN         CLEAR     62  57  83 NE3       30.03S
HURLBURT       PTCLDY    53  47  79 CALM      30.02S
CRESTVIEW      CLEAR     43  42  97 CALM      30.06S
PENSACOLA      CLEAR     55  51  86 N8        30.03S
$$

!ALZ063-066-201200
...South Alabama...

CITY           SKY/WX    TMP DP  RH WIND       PRES   REMARKS
DOTHAN         CLEAR     48  47  96 CALM      30.10S
OZARK CAIRNS   CLEAR     49  47  94 NE5       30.06S
FT RUCKER HELI CLEAR     46  44  93 CALM      30.06S
RUCKER HELI 3  FAIR      48  47  99 N2        30.08S
RUCKER HELI 2  FAIR      49  47  93 NE3       30.07S
FLORALA APT    CLEAR     50  47  89 CALM      30.07S
ANDALUSIA      CLEAR     51  45  79 CALM      30.06R
TROY           CLEAR     45  42  89 CALM      30.08S
EUFALA         FAIR      46  44  93 CALM      30.08S
MOBILE         PTCLDY    51  48  89 NE3       30.05S
$$

!GAZ120>161-201200
...Southwest and South Central Georgia...

CITY           SKY/WX    TMP DP  RH WIND       PRES   REMARKS
THOMASVILLE    CLOUDY    54  54 100 CALM      30.09R
BAINBRIDGE     CLEAR     54  52  94 CALM      30.08R
MOODY AFB      MOCLDY    54  52  92 NE3       30.08R
VALDOSTA       CLOUDY    57  51  80 CALM      30.07S
MOULTRIE       PTCLDY    55  54  94 CALM      30.09R
BLAKELY        CLEAR     48  48 100 CALM        N/A  FOG
ALBANY         CLEAR     50  48  93 CALM      30.11R
TIFTON         FAIR      49  49  99 CALM      30.09S
FITZGERALD     FAIR      49  46  92 CALM      30.12R FOG
CORDELE        FAIR      49  47  93 CALM      30.11R
AMERICUS       FAIR      46  46 100 NE3       30.11S
HOMERVILLE     MOCLDY    54  54 100 CALM      30.09R
$$

!GMZ750-755-770-775-201200
...Coastal and Buoy Obs...

STATION/POSITION TIME  TEMP    WIND        PRES    VSBY  WAVE
                       AIR SEA DIR/SP/G                  HT/PER
                 (UTC) (F)     (DEG/KT/KT) (MB)    (MI)  (FT/S)
KEATON BEACH     1100   60      60/  6/  8 1017.5R
CEDAR KEY        1055   65      60/ 11/ 11 1017.6R
C TOWER          1100   75     140/  9/ 10 1016.2S
APALACHICOLA BUO 1100   75 82  100/  8/ 10 1015.9R         2/ 4
PANAMA CITY BUOY 1029   76 81  100/  8/ 10 1015.8R         2/ 4
MOBILE BUOY      0959   73 79   80/  8/ 12 1016.7R         2/ 6
ORANGE BCH AL BU 1100   72 78   40/  8/ 10 1016.1F         1/ 5
$$



USA.gov is the U.S. government's official web portal to all federal, state and local government web resources and services.